Time,TemperatureF,DewpointF,PressureIn,WindDirection,WindDirectionDegrees,WindSpeedMPH,WindSpeedGustMPH,Humidity,HourlyPrecipIn,Conditions,Clouds,dailyrainin,SoftwareType,DateUTC
2013-12-24 00:08:00,-6.0,-10.5,30.43,SW,225,0.0,-999.0,80,-99.99,,,0.00,Acu-Link.com,2013-12-24 06:08:00,
2013-12-24 00:23:00,-6.2,-10.7,30.41,SSW,202,0.0,-999.0,80,-99.99,,,0.00,Acu-Link.com,2013-12-24 06:23:00,
2013-12-24 00:38:00,-6.2,-10.4,30.42,SSW,202,0.0,-999.0,81,-99.99,,,0.00,Acu-Link.com,2013-12-24 06:38:00,
2013-12-24 00:53:00,-4.9,-11.0,30.42,NNE,22,0.0,-999.0,74,-99.99,,,0.00,Acu-Link.com,2013-12-24 06:53:00,
2013-12-24 01:09:00,-1.8,-9.2,30.41,SSW,202,2.2,-999.0,70,-99.99,,,0.00,Acu-Link.com,2013-12-24 07:09:00,
2013-12-24 01:24:00,-3.3,-9.2,30.40,NNE,22,0.0,-999.0,75,-99.99,,,0.00,Acu-Link.com,2013-12-24 07:24:00,
2013-12-24 01:39:00,-3.1,-9.0,30.38,NNE,22,0.0,-999.0,75,-99.99,,,0.00,Acu-Link.com,2013-12-24 07:39:00,
2013-12-24 01:54:00,-2.7,-8.9,30.38,ESE,112,0.0,-999.0,74,-99.99,,,0.00,Acu-Link.com,2013-12-24 07:54:00,
2013-12-24 02:10:00,-0.9,-7.2,30.37,SSE,157,1.6,-999.0,74,-99.99,,,0.00,Acu-Link.com,2013-12-24 08:10:00,
2013-12-24 02:25:00,1.2,-6.2,30.36,SSE,157,2.2,-999.0,70,-99.99,,,0.00,Acu-Link.com,2013-12-24 08:25:00,
2013-12-24 02:40:00,2.5,-5.3,30.36,SSE,157,2.2,-999.0,69,-99.99,,,0.00,Acu-Link.com,2013-12-24 08:40:00,
2013-12-24 02:55:00,3.2,-5.2,30.36,SE,135,3.8,-999.0,67,-99.99,,,0.00,Acu-Link.com,2013-12-24 08:55:00,
2013-12-24 03:11:00,3.4,-4.8,30.35,ESE,112,4.3,-999.0,68,-99.99,,,0.00,Acu-Link.com,2013-12-24 09:11:00,
2013-12-24 03:26:00,3.9,-3.6,30.34,SE,135,1.6,-999.0,70,-99.99,,,0.00,Acu-Link.com,2013-12-24 09:26:00,
2013-12-24 03:41:00,3.9,-3.4,30.34,SSE,157,1.6,-999.0,71,-99.99,,,0.00,Acu-Link.com,2013-12-24 09:41:00,
2013-12-24 03:57:00,3.9,-2.8,30.33,SSW,202,1.1,-999.0,73,-99.99,,,0.00,Acu-Link.com,2013-12-24 09:57:00,
2013-12-24 04:12:00,4.3,-2.1,30.31,ESE,112,3.8,-999.0,74,-99.99,,,0.00,Acu-Link.com,2013-12-24 10:12:00,
2013-12-24 04:27:00,4.5,-1.7,30.30,ESE,112,2.2,-999.0,75,-99.99,,,0.00,Acu-Link.com,2013-12-24 10:27:00,
2013-12-24 04:43:00,4.5,-1.4,30.29,SSE,157,3.1,-999.0,76,-99.99,,,0.00,Acu-Link.com,2013-12-24 10:43:00,
2013-12-24 04:58:00,4.6,-1.2,30.29,ESE,112,3.1,-999.0,76,-99.99,,,0.00,Acu-Link.com,2013-12-24 10:58:00,
2013-12-24 05:13:00,5.0,-0.9,30.28,SE,135,3.8,-999.0,76,-99.99,,,0.00,Acu-Link.com,2013-12-24 11:13:00,
2013-12-24 05:28:00,5.4,-0.5,30.28,ESE,112,4.3,-999.0,76,-99.99,,,0.00,Acu-Link.com,2013-12-24 11:28:00,
2013-12-24 05:43:00,5.5,0.2,30.27,North,0,5.1,-999.0,78,-99.99,,,0.00,Acu-Link.com,2013-12-24 11:43:00,
2013-12-24 05:58:00,5.5,0.5,30.26,East,90,5.8,-999.0,79,-99.99,,,0.00,Acu-Link.com,2013-12-24 11:58:00,
2013-12-24 06:14:00,5.5,0.7,30.26,NE,45,4.7,-999.0,80,-99.99,,,0.00,Acu-Link.com,2013-12-24 12:14:00,
2013-12-24 06:29:00,6.1,1.3,30.25,SE,135,5.1,-999.0,80,-99.99,,,0.00,Acu-Link.com,2013-12-24 12:29:00,
2013-12-24 06:44:00,6.3,1.4,30.25,SSE,157,6.7,-999.0,80,-99.99,,,0.00,Acu-Link.com,2013-12-24 12:44:00,
2013-12-24 06:59:00,6.6,1.8,30.25,SSE,157,7.4,-999.0,80,-99.99,,,0.00,Acu-Link.com,2013-12-24 12:59:00,
2013-12-24 07:14:00,7.0,2.1,30.24,SSW,202,5.8,-999.0,80,-99.99,,,0.00,Acu-Link.com,2013-12-24 13:14:00,
2013-12-24 07:30:00,7.9,2.7,30.23,SSW,202,4.3,-999.0,79,-99.99,,,0.00,Acu-Link.com,2013-12-24 13:30:00,
2013-12-24 07:45:00,8.2,3.1,30.23,SSW,202,5.8,-999.0,79,-99.99,,,0.00,Acu-Link.com,2013-12-24 13:45:00,
2013-12-24 08:00:00,8.6,3.4,30.22,East,90,6.3,-999.0,79,-99.99,,,0.00,Acu-Link.com,2013-12-24 14:00:00,
2013-12-24 08:15:00,9.0,3.8,30.22,SSE,157,5.1,-999.0,79,-99.99,,,0.00,Acu-Link.com,2013-12-24 14:15:00,
2013-12-24 08:31:00,9.5,4.0,30.21,SSE,157,9.4,-999.0,78,-99.99,,,0.00,Acu-Link.com,2013-12-24 14:31:00,
2013-12-24 08:46:00,10.0,4.0,30.22,South,180,6.3,-999.0,76,-99.99,,,0.00,Acu-Link.com,2013-12-24 14:46:00,
2013-12-24 09:01:00,10.4,4.1,30.21,ESE,112,5.8,-999.0,75,-99.99,,,0.00,Acu-Link.com,2013-12-24 15:01:00,
2013-12-24 09:16:00,10.8,4.4,30.20,East,90,6.3,-999.0,75,-99.99,,,0.00,Acu-Link.com,2013-12-24 15:16:00,
2013-12-24 09:31:00,11.3,4.9,30.20,SE,135,7.8,-999.0,75,-99.99,,,0.00,Acu-Link.com,2013-12-24 15:31:00,
2013-12-24 09:47:00,11.5,5.1,30.19,ESE,112,4.7,-999.0,75,-99.99,,,0.00,Acu-Link.com,2013-12-24 15:47:00,
2013-12-24 10:02:00,11.7,5.3,30.20,SE,135,6.3,-999.0,75,-99.99,,,0.00,Acu-Link.com,2013-12-24 16:02:00,
2013-12-24 10:17:00,11.8,5.8,30.19,ESE,112,6.3,-999.0,76,-99.99,,,0.00,Acu-Link.com,2013-12-24 16:17:00,
2013-12-24 10:33:00,11.7,5.9,30.18,South,180,4.7,-999.0,77,-99.99,,,0.00,Acu-Link.com,2013-12-24 16:33:00,
2013-12-24 10:48:00,12.0,6.2,30.16,SE,135,8.3,-999.0,77,-99.99,,,0.00,Acu-Link.com,2013-12-24 16:48:00,
2013-12-24 11:03:00,12.6,6.7,30.16,SSW,202,5.8,-999.0,77,-99.99,,,0.00,Acu-Link.com,2013-12-24 17:03:00,
2013-12-24 11:19:00,13.1,7.0,30.15,ESE,112,6.3,-999.0,76,-99.99,,,0.00,Acu-Link.com,2013-12-24 17:19:00,
2013-12-24 11:34:00,13.3,7.2,30.14,ESE,112,6.7,-999.0,76,-99.99,,,0.00,Acu-Link.com,2013-12-24 17:34:00,
2013-12-24 11:49:00,14.2,8.0,30.13,SSW,202,7.4,-999.0,76,-99.99,,,0.00,Acu-Link.com,2013-12-24 17:49:00,
2013-12-24 12:04:00,14.7,8.3,30.11,East,90,8.3,-999.0,75,-99.99,,,0.00,Acu-Link.com,2013-12-24 18:04:00,
2013-12-24 12:19:00,14.9,7.8,30.10,South,180,4.3,-999.0,73,-99.99,,,0.00,Acu-Link.com,2013-12-24 18:19:00,
2013-12-24 12:35:00,15.1,7.4,30.07,SSE,157,6.7,-999.0,71,-99.99,,,0.00,Acu-Link.com,2013-12-24 18:35:00,
2013-12-24 12:50:00,14.9,7.5,30.06,SSE,157,7.4,-999.0,72,-99.99,,,0.00,Acu-Link.com,2013-12-24 18:50:00,
2013-12-24 13:05:00,15.3,7.9,30.04,WNW,292,5.1,-999.0,72,-99.99,,,0.00,Acu-Link.com,2013-12-24 19:05:00,
2013-12-24 13:21:00,15.6,8.2,30.05,SE,135,7.4,-999.0,72,-99.99,,,0.00,Acu-Link.com,2013-12-24 19:21:00,
2013-12-24 13:36:00,15.1,7.7,30.03,West,270,6.7,-999.0,72,-99.99,,,0.00,Acu-Link.com,2013-12-24 19:36:00,
2013-12-24 13:51:00,15.1,8.3,30.04,SSE,157,9.8,-999.0,74,-99.99,,,0.00,Acu-Link.com,2013-12-24 19:51:00,
2013-12-24 14:06:00,15.3,8.8,30.03,SSE,157,4.7,-999.0,75,-99.99,,,0.00,Acu-Link.com,2013-12-24 20:06:00,
2013-12-24 14:21:00,15.1,8.9,30.04,South,180,6.3,-999.0,76,-99.99,,,0.00,Acu-Link.com,2013-12-24 20:21:00,
2013-12-24 14:36:00,15.1,9.2,30.04,SSW,202,4.7,-999.0,77,-99.99,,,0.00,Acu-Link.com,2013-12-24 20:36:00,
2013-12-24 14:52:00,15.1,9.2,30.03,South,180,5.8,-999.0,77,-99.99,,,0.00,Acu-Link.com,2013-12-24 20:52:00,
2013-12-24 15:07:00,15.1,9.2,30.01,South,180,6.3,-999.0,77,-99.99,,,0.00,Acu-Link.com,2013-12-24 21:07:00,
2013-12-24 15:22:00,15.1,9.2,30.00,ESE,112,6.7,-999.0,77,-99.99,,,0.00,Acu-Link.com,2013-12-24 21:22:00,
2013-12-24 15:37:00,15.4,9.5,30.02,SSE,157,7.4,-999.0,77,-99.99,,,0.00,Acu-Link.com,2013-12-24 21:37:00,
2013-12-24 15:53:00,15.8,9.9,30.03,SSW,202,6.7,-999.0,77,-99.99,,,0.00,Acu-Link.com,2013-12-24 21:53:00,
2013-12-24 16:08:00,16.0,10.1,30.04,SSW,202,7.4,-999.0,77,-99.99,,,0.00,Acu-Link.com,2013-12-24 22:08:00,
2013-12-24 16:23:00,16.2,10.5,30.04,SSW,202,5.1,-999.0,78,-99.99,,,0.00,Acu-Link.com,2013-12-24 22:23:00,
2013-12-24 16:39:00,16.3,10.7,30.04,ESE,112,4.7,-999.0,78,-99.99,,,0.00,Acu-Link.com,2013-12-24 22:39:00,
2013-12-24 16:54:00,16.7,11.3,30.04,SE,135,4.7,-999.0,79,-99.99,,,0.00,Acu-Link.com,2013-12-24 22:54:00,
2013-12-24 17:09:00,17.1,12.0,30.04,SSE,157,3.8,-999.0,80,-99.99,,,0.00,Acu-Link.com,2013-12-24 23:09:00,
2013-12-24 17:24:00,18.1,13.6,30.04,South,180,4.3,-999.0,82,-99.99,,,0.00,Acu-Link.com,2013-12-24 23:24:00,
2013-12-24 17:39:00,18.7,14.1,30.04,West,270,4.3,-999.0,82,-99.99,,,0.00,Acu-Link.com,2013-12-24 23:39:00,
2013-12-24 17:55:00,18.9,14.6,30.04,SE,135,4.7,-999.0,83,-99.99,,,0.00,Acu-Link.com,2013-12-24 23:55:00,
2013-12-24 18:10:00,18.9,14.6,30.04,SSW,202,8.9,-999.0,83,-99.99,,,0.00,Acu-Link.com,2013-12-25 00:10:00,
2013-12-24 18:25:00,19.0,15.0,30.04,SSW,202,4.3,-999.0,84,-99.99,,,0.00,Acu-Link.com,2013-12-25 00:25:00,
2013-12-24 18:40:00,19.2,15.2,30.05,ESE,112,3.1,-999.0,84,-99.99,,,0.00,Acu-Link.com,2013-12-25 00:40:00,
2013-12-24 18:56:00,19.2,14.9,30.04,South,180,3.1,-999.0,83,-99.99,,,0.00,Acu-Link.com,2013-12-25 00:56:00,
2013-12-24 19:11:00,19.0,14.7,30.05,SW,225,2.2,-999.0,83,-99.99,,,0.00,Acu-Link.com,2013-12-25 01:11:00,
2013-12-24 19:26:00,19.0,14.5,30.06,South,180,3.8,-999.0,82,-99.99,,,0.00,Acu-Link.com,2013-12-25 01:26:00,
2013-12-24 19:41:00,18.9,14.3,30.06,ESE,112,2.7,-999.0,82,-99.99,,,0.00,Acu-Link.com,2013-12-25 01:41:00,
2013-12-24 19:56:00,18.9,14.3,30.06,ESE,112,3.1,-999.0,82,-99.99,,,0.00,Acu-Link.com,2013-12-25 01:56:00,
2013-12-24 20:12:00,18.9,14.6,30.07,SSE,157,3.1,-999.0,83,-99.99,,,0.00,Acu-Link.com,2013-12-25 02:12:00,
2013-12-24 20:27:00,18.9,14.6,30.07,SSW,202,3.1,-999.0,83,-99.99,,,0.00,Acu-Link.com,2013-12-25 02:27:00,
2013-12-24 20:42:00,19.0,15.0,30.07,SSE,157,3.8,-999.0,84,-99.99,,,0.00,Acu-Link.com,2013-12-25 02:42:00,
2013-12-24 20:57:00,19.2,15.2,30.08,SE,135,4.3,-999.0,84,-99.99,,,0.00,Acu-Link.com,2013-12-25 02:57:00,
2013-12-24 21:13:00,19.8,16.0,30.09,South,180,2.7,-999.0,85,-99.99,,,0.00,Acu-Link.com,2013-12-25 03:13:00,
2013-12-24 21:28:00,20.3,17.1,30.09,NW,315,2.2,-999.0,87,-99.99,,,0.00,Acu-Link.com,2013-12-25 03:28:00,
2013-12-24 21:43:00,20.5,17.2,30.09,SSW,202,3.8,-999.0,87,-99.99,,,0.00,Acu-Link.com,2013-12-25 03:43:00,
2013-12-24 21:58:00,20.7,17.7,30.09,SSW,202,3.8,-999.0,88,-99.99,,,0.00,Acu-Link.com,2013-12-25 03:58:00,
2013-12-24 22:14:00,21.0,18.3,30.09,SSE,157,0.0,-999.0,89,-99.99,,,0.00,Acu-Link.com,2013-12-25 04:14:00,
2013-12-24 22:29:00,22.1,19.9,30.10,SSW,202,0.0,-999.0,91,-99.99,,,0.00,Acu-Link.com,2013-12-25 04:29:00,
2013-12-24 22:44:00,23.0,20.8,30.10,SSW,202,2.2,-999.0,91,-99.99,,,0.00,Acu-Link.com,2013-12-25 04:44:00,
2013-12-24 23:00:00,23.2,20.2,30.10,South,180,1.6,-999.0,88,-99.99,,,0.00,Acu-Link.com,2013-12-25 05:00:00,
2013-12-24 23:15:00,23.2,19.4,30.11,ESE,112,2.2,-999.0,85,-99.99,,,0.00,Acu-Link.com,2013-12-25 05:15:00,
2013-12-24 23:30:00,23.0,19.2,30.10,West,270,2.7,-999.0,85,-99.99,,,0.00,Acu-Link.com,2013-12-25 05:30:00,
2013-12-24 23:45:00,22.6,18.8,30.10,North,0,2.7,-999.0,85,-99.99,,,0.00,Acu-Link.com,2013-12-25 05:45:00,